IZ3TCG-13 Weather Reports


Display with metric or nautical units.
time (UTC)temp
F
wind
direction
speed
MPH
gust
MPH
rain 1hr
in
rain 24hr
in
rain mn
in
humidity
%
barometer
mb
20260906093603 87 2 2.0 7.0 0.00 0.00 0.00 52 1018.6
20260906093203 86 353 4.0 11.0 0.00 0.00 0.00 52 1019.0
20260906092803 86 17 1.0 11.0 0.00 0.00 0.00 53 1018.7
20260906092403 86 35 2.0 11.0 0.00 0.00 0.00 53 1018.9
20260906092003 86 51 3.0 7.0 0.00 0.00 0.00 53 1018.6
20260906091603 87 18 2.0 9.0 0.00 0.00 0.00 53 1018.9
20260906091416 87 8 2.0 9.0 0.00 0.00 0.00 53 1018.8
20260906090803 86 8 4.0 9.0 0.00 0.00 0.00 53 1018.7
20260906090615 85 17 2.0 9.0 0.00 0.00 0.00 54 1018.8
20260906090214 84 31 3.0 9.0 0.00 0.00 0.00 56 1018.9
20260906085814 84 56 2.0 8.0 0.00 0.00 0.00 56 1019.0
20260906085413 85 65 4.0 8.0 0.00 0.00 0.00 54 1018.7
20260906084803 84 29 2.0 7.0 0.00 0.00 0.00 56 1019.0
20260906084403 84 36 2.0 8.0 0.00 0.00 0.00 56 1018.8
20260906084003 84 36 2.0 8.0 0.00 0.00 0.00 55 1018.9
20260906083603 84 37 3.0 7.0 0.00 0.00 0.00 56 1018.8
20260906083203 84 39 2.0 6.0 0.00 0.00 0.00 55 1018.9
20260906082803 84 50 3.0 8.0 0.00 0.00 0.00 56 1018.9
20260906082403 84 39 3.0 8.0 0.00 0.00 0.00 56 1018.6
20260906082003 83 36 3.0 8.0 0.00 0.00 0.00 57 1018.9
20260906081603 84 29 2.0 11.0 0.00 0.00 0.00 56 1018.6
20260906081203 84 28 2.0 11.0 0.00 0.00 0.00 56 1018.6
20260906080803 82 23 3.0 11.0 0.00 0.00 0.00 58 1018.7
20260906080404 83 17 3.0 9.0 0.00 0.00 0.00 57 1018.6
20260906080004 82 19 4.0 9.0 0.00 0.00 0.00 58 1018.6
20260906075603 82 24 2.0 9.0 0.00 0.00 0.00 59 1018.6
20260906075203 83 29 4.0 8.0 0.00 0.00 0.00 56 1018.6
20260906074803 82 32 4.0 7.0 0.00 0.00 0.00 57 1018.7
20260906074403 83 23 2.0 4.0 0.00 0.00 0.00 58 1018.6
20260906074003 83 26 1.0 11.0 0.00 0.00 0.00 57 1018.6
20260906073603 82 24 2.0 11.0 0.00 0.00 0.00 60 1018.5
20260906073416 82 23 3.0 11.0 0.00 0.00 0.00 60 1018.4
20260906072803 80 29 0.0 8.0 0.00 0.00 0.00 62 1018.4
20260906072403 80 26 4.0 9.0 0.00 0.00 0.00 62 1018.4
20260906072214 80 19 2.0 11.0 0.00 0.00 0.00 61 1018.6
20260906071603 79 357 2.0 11.0 0.00 0.00 0.00 64 1018.2
20260906071203 79 360 4.0 13.0 0.00 0.00 0.00 64 1018.3
20260906070803 79 13 3.0 13.0 0.00 0.00 0.00 65 1018.6
20260906070616 79 12 3.0 13.0 0.00 0.00 0.00 65 1018.3
20260906070216 79 19 4.0 8.0 0.00 0.00 0.00 66 1018.3
20260906065603 79 21 2.0 6.0 0.00 0.00 0.00 66 1018.1
20260906065203 79 22 2.0 8.0 0.00 0.00 0.00 66 1018.1
20260906064803 78 8 3.0 8.0 0.00 0.00 0.00 67 1018.2
20260906064403 78 5 4.0 9.0 0.00 0.00 0.00 68 1018.3
20260906064003 77 354 5.0 9.0 0.00 0.00 0.00 68 1017.9
20260906063603 77 346 3.0 9.0 0.00 0.00 0.00 69 1018.0
20260906063203 77 326 4.0 8.0 0.00 0.00 0.00 69 1018.0
20260906062803 77 343 2.0 8.0 0.00 0.00 0.00 69 1018.0
20260906062403 76 342 2.0 8.0 0.00 0.00 0.00 70 1018.1
20260906062003 76 11 2.0 8.0 0.00 0.00 0.00 71 1017.8
20260906061603 76 16 2.0 8.0 0.00 0.00 0.00 71 1017.6
20260906061413 76 24 2.0 8.0 0.00 0.00 0.00 71 1017.6
20260906060803 76 359 2.0 4.0 0.00 0.00 0.00 72 1017.7
20260906060403 75 1 2.0 4.0 0.00 0.00 0.00 73 1017.8
20260906060003 74 1 2.0 4.0 0.00 0.00 0.00 74 1017.8
20260906055816 74 4 2.0 4.0 0.00 0.00 0.00 74 1017.7
20260906055204 74 340 2.0 4.0 0.00 0.00 0.00 75 1017.8
20260906054803 74 351 1.0 4.0 0.00 0.00 0.00 75 1017.8
20260906054403 74 341 0.0 4.0 0.00 0.00 0.00 75 1017.5
20260906054003 74 339 2.0 4.0 0.00 0.00 0.00 75 1017.5
20260906053603 74 346 2.0 4.0 0.00 0.00 0.00 76 1017.4
20260906053417 74 358 1.0 4.0 0.00 0.00 0.00 76 1017.6
20260906053016 73 353 1.0 4.0 0.00 0.00 0.00 76 1017.3
20260906052403 73 338 0.0 4.0 0.00 0.00 0.00 76 1017.4
20260906052003 73 334 0.0 4.0 0.00 0.00 0.00 76 1017.3
20260906051603 73 353 2.0 4.0 0.00 0.00 0.00 76 1017.2
20260906051203 73 360 1.0 4.0 0.00 0.00 0.00 76 1017.2
20260906050803 73 352 2.0 4.0 0.00 0.00 0.00 76 1017.0
20260906050612 73 353 1.0 4.0 0.00 0.00 0.00 77 1017.2
20260906050003 73 1 2.0 4.0 0.00 0.00 0.00 77 1017.2
20260906045603 73 354 0.0 2.0 0.00 0.00 0.00 77 1017.1
20260906045203 73 349 1.0 4.0 0.00 0.00 0.00 77 1017.2
20260906045015 73 351 2.0 4.0 0.00 0.00 0.00 77 1016.9
20260906044614 73 345 1.0 4.0 0.00 0.00 0.00 77 1017.2
20260906044003 73 350 2.0 4.0 0.00 0.00 0.00 77 1016.9
20260906043603 73 353 1.0 6.0 0.00 0.00 0.00 77 1016.8
20260906043418 73 351 2.0 6.0 0.00 0.00 0.00 77 1016.9
20260906043017 73 346 1.0 6.0 0.00 0.00 0.00 76 1016.8
20260906042403 73 360 1.0 4.0 0.00 0.00 0.00 76 1016.6
20260906042003 73 8 1.0 7.0 0.00 0.00 0.00 76 1016.6
20260906041603 73 15 2.0 7.0 0.00 0.00 0.00 76 1016.5
20260906041203 73 3 4.0 7.0 0.00 0.00 0.00 76 1016.6
20260906041014 73 354 1.0 4.0 0.00 0.00 0.00 76 1016.4
20260906040403 74 360 1.0 4.0 0.00 0.00 0.00 76 1016.6
20260906040003 74 4 2.0 4.0 0.00 0.00 0.00 76 1016.6
20260906035817 74 3 2.0 4.0 0.00 0.00 0.00 76 1016.5
20260906035203 74 336 1.0 4.0 0.00 0.00 0.00 76 1016.4
20260906035016 74 335 2.0 4.0 0.00 0.00 0.00 76 1016.3
20260906034403 74 347 1.0 4.0 0.00 0.00 0.00 76 1016.3
20260906034004 74 342 1.0 6.0 0.00 0.00 0.00 76 1016.2
20260906033603 74 328 1.0 6.0 0.00 0.00 0.00 76 1016.4
20260906033204 74 330 2.0 6.0 0.00 0.00 0.00 76 1016.2
20260906032803 74 334 1.0 4.0 0.00 0.00 0.00 76 1016.3
20260906032403 74 327 1.0 4.0 0.00 0.00 0.00 76 1016.3
20260906032003 74 336 2.0 4.0 0.00 0.00 0.00 76 1016.3
20260906031816 74 342 2.0 4.0 0.00 0.00 0.00 76 1016.1
20260906031203 74 333 0.0 4.0 0.00 0.00 0.00 77 1016.1
20260906030803 74 340 1.0 4.0 0.00 0.00 0.00 76 1016.1
20260906030614 74 336 2.0 4.0 0.00 0.00 0.00 76 1016.2
20260906030213 74 340 1.0 4.0 0.00 0.00 0.00 77 1016.3
20260906025603 74 337 0.0 2.0 0.00 0.00 0.00 78 1016.4
20260906025203 74 334 1.0 2.0 0.00 0.00 0.00 78 1016.2
20260906024803 74 339 1.0 2.0 0.00 0.00 0.00 78 1016.5
20260906024616 74 341 1.0 2.0 0.00 0.00 0.00 79 1016.4
20260906024215 74 327 0.0 2.0 0.00 0.00 0.00 78 1016.3
20260906023603 74 334 1.0 2.0 0.00 0.00 0.00 78 1016.4
20260906023203 74 350 0.0 4.0 0.00 0.00 0.00 78 1016.2
20260906023013 74 352 2.0 4.0 0.00 0.00 0.00 77 1016.2
20260906022403 74 338 2.0 4.0 0.00 0.00 0.00 78 1016.2
20260906022217 74 341 1.0 4.0 0.00 0.00 0.00 78 1016.1
20260906021816 75 342 1.0 4.0 0.00 0.00 0.00 78 1016.1
20260906021416 75 337 2.0 4.0 0.00 0.00 0.00 78 1016.0
20260906021015 75 341 2.0 4.0 0.00 0.00 0.00 79 1016.2
20260906020403 74 343 1.0 4.0 0.00 0.00 0.00 80 1016.2
20260906020214 74 351 0.0 4.0 0.00 0.00 0.00 80 1015.9
20260906015813 75 359 1.0 4.0 0.00 0.00 0.00 80 1016.1
20260906015203 75 16 0.0 4.0 0.00 0.00 0.00 81 1016.3
20260906014803 75 7 1.0 4.0 0.00 0.00 0.00 81 1016.3
20260906014403 75 1 2.0 4.0 0.00 0.00 0.00 81 1016.3
20260906014003 75 337 1.0 4.0 0.00 0.00 0.00 82 1016.1
20260906013603 75 332 0.0 4.0 0.00 0.00 0.00 82 1015.9
20260906013203 75 319 2.0 4.0 0.00 0.00 0.00 83 1016.0
20260906012803 75 343 1.0 4.0 0.00 0.00 0.00 85 1016.1
20260906012403 75 353 1.0 4.0 0.00 0.00 0.00 85 1015.9
20260906012003 75 2 1.0 4.0 0.00 0.00 0.00 86 1015.9
20260906011603 75 347 1.0 4.0 0.00 0.00 0.00 86 1016.0
20260906011416 75 342 0.0 4.0 0.00 0.00 0.00 86 1015.9
20260906011016 75 340 1.0 4.0 0.00 0.00 0.00 87 1015.9
20260906010403 75 10 1.0 2.0 0.00 0.00 0.00 87 1016.0
20260906010003 75 20 0.0 2.0 0.00 0.00 0.00 88 1015.7
20260906005603 75 17 0.0 2.0 0.00 0.00 0.00 88 1015.9
20260906005203 75 354 0.0 4.0 0.00 0.00 0.00 88 1016.1
20260906004803 75 341 0.0 4.0 0.00 0.00 0.00 89 1016.0
20260906004403 75 335 1.0 4.0 0.00 0.00 0.00 89 1015.9
20260906004003 76 338 1.0 2.0 0.00 0.00 0.00 90 1016.0
20260906003603 76 347 0.0 4.0 0.00 0.00 0.00 91 1016.0
20260906003203 76 345 0.0 4.0 0.00 0.00 0.00 91 1015.9
20260906003014 76 347 0.0 4.0 0.00 0.00 0.00 91 1016.0
20260906002403 76 333 1.0 4.0 0.00 0.00 0.00 91 1016.0
20260906002213 76 340 1.0 4.0 0.00 0.00 0.00 91 1016.0
20260906001603 76 333 1.0 2.0 0.00 0.00 0.00 92 1016.1
20260906001204 76 305 0.0 2.0 0.00 0.00 0.00 92 1016.1
20260906000803 76 299 1.0 2.0 0.00 0.00 0.00 91 1016.0
20260906000403 76 320 1.0 4.0 0.00 0.00 0.00 91 1015.9
20260906000004 76 338 1.0 4.0 0.00 0.00 0.00 91 1015.7
20260905235603 76 336 2.0 4.0 0.00 0.00 0.00 91 1015.9
20260905235414 76 339 0.0 4.0 0.00 0.00 0.00 91 1016.1
20260905235013 77 335 0.0 4.0 0.00 0.00 0.00 91 1015.9
20260905234403 77 332 1.0 4.0 0.00 0.00 0.00 91 1015.9
20260905234003 77 343 1.0 2.0 0.00 0.00 0.00 91 1015.8
20260905233603 77 351 0.0 2.0 0.00 0.00 0.00 91 1015.8
20260905233416 77 350 2.0 2.0 0.00 0.00 0.00 91 1016.0
20260905232803 77 326 1.0 2.0 0.00 0.00 0.00 92 1015.6
20260905232403 77 317 1.0 2.0 0.00 0.00 0.00 92 1015.7
20260905232003 77 336 0.0 2.0 0.00 0.00 0.00 93 1015.7
20260905231603 77 3 0.0 2.0 0.00 0.00 0.00 94 1015.7
20260905231203 77 16 0.0 2.0 0.00 0.00 0.00 94 1015.7
20260905231017 77 22 1.0 2.0 0.00 0.00 0.00 94 1015.8
20260905230404 77 15 1.0 2.0 0.00 0.00 0.00 94 1015.7
20260905230216 77 10 1.0 2.0 0.00 0.00 0.00 94 1015.8
20260905225603 77 348 0.0 2.0 0.00 0.00 0.00 95 1015.6
20260905225203 77 11 0.0 2.0 0.00 0.00 0.00 95 1015.8
20260905224803 76 45 0.0 2.0 0.00 0.00 0.00 95 1015.5
20260905224613 76 45 0.0 2.0 0.00 0.00 0.00 95 1015.4
20260905224003 76 0 0.0 0.0 0.00 0.00 0.00 95 1015.5
20260905223603 76 0 0.0 0.0 0.00 0.00 0.00 95 1015.7
20260905223203 76 0 0.0 0.0 0.00 0.00 0.00 96 1015.4
20260905222803 76 0 0.0 0.0 0.00 0.00 0.00 96 1015.6
20260905222615 76 0 0.0 0.0 0.00 0.00 0.00 96 1015.6
20260905222003 76 0 0.0 0.0 0.00 0.00 0.00 96 1015.5
20260905221603 76 0 0.0 0.0 0.00 0.00 0.00 96 1015.5
20260905221203 75 0 0.0 0.0 0.00 0.00 0.00 96 1015.5
20260905220803 76 0 0.0 0.0 0.00 0.00 0.00 96 1015.4
20260905220403 76 0 0.0 0.0 0.00 0.00 0.00 96 1015.1
20260905220006 76 0 0.0 0.0 0.00 0.00 0.00 96 1015.3
20260905215816 76 0 0.0 0.0 0.00 0.00 0.00 96 1015.2
20260905215203 76 90 0.0 2.0 0.00 0.00 0.00 95 1015.3
20260905214803 76 90 0.0 2.0 0.00 0.00 0.00 95 1015.1
20260905214403 76 90 0.0 2.0 0.00 0.00 0.00 95 1015.2
20260905214003 76 90 0.0 2.0 0.00 0.00 0.00 95 1015.0
20260905213603 76 0 0.0 0.0 0.00 0.00 0.00 94 1015.2
20260905213203 76 0 0.0 0.0 0.00 0.00 0.00 94 1015.0
20260905212803 77 0 0.0 0.0 0.00 0.00 0.00 94 1014.9
20260905212403 77 0 0.0 0.0 0.00 0.00 0.00 94 1014.9
20260905212003 77 0 0.0 0.0 0.00 0.00 0.00 93 1014.7
20260905211603 77 0 0.0 0.0 0.00 0.00 0.00 93 1014.8
20260905211203 77 0 0.0 0.0 0.00 0.00 0.00 93 1014.6
20260905210803 77 0 0.0 0.0 0.00 0.00 0.00 93 1014.7
20260905210612 77 0 0.0 0.0 0.00 0.00 0.00 93 1014.6
20260905210217 78 0 0.0 0.0 0.00 0.00 0.00 92 1014.5
20260905205603 78 90 0.0 2.0 0.00 0.00 0.00 92 1014.7
20260905205416 78 90 0.0 2.0 0.00 0.00 0.00 92 1014.8
20260905204804 77 90 0.0 2.0 0.00 0.00 0.00 92 1014.7
20260905204403 77 0 0.0 0.0 0.00 0.00 0.00 92 1014.9
20260905204004 77 0 0.0 0.0 0.00 0.00 0.00 93 1014.8
20260905203603 77 0 0.0 0.0 0.00 0.00 0.00 93 1014.6
20260905203203 77 0 0.0 0.0 0.00 0.00 0.00 93 1014.7
20260905202803 77 0 0.0 0.0 0.00 0.00 0.00 93 1014.8
20260905202403 77 0 0.0 0.0 0.00 0.00 0.00 93 1014.8
20260905202003 77 0 0.0 0.0 0.00 0.00 0.00 92 1014.8
20260905201603 77 90 0.0 2.0 0.00 0.00 0.00 92 1014.7
20260905201203 77 90 0.0 2.0 0.00 0.00 0.00 92 1014.7
20260905201014 78 90 0.0 2.0 0.00 0.00 0.00 92 1014.8
20260905200403 78 0 0.0 0.0 0.00 0.00 0.00 91 1014.5
20260905200003 78 0 0.0 0.0 0.00 0.00 0.00 91 1014.5
20260905195603 78 0 0.0 0.0 0.00 0.00 0.00 91 1014.5
20260905195203 78 90 0.0 2.0 0.00 0.00 0.00 90 1014.5
20260905194803 78 85 0.0 4.0 0.00 0.00 0.00 90 1014.5
20260905194403 79 82 1.0 4.0 0.00 0.00 0.00 89 1014.2
20260905194004 79 77 1.0 4.0 0.00 0.00 0.00 89 1014.4
20260905193814 79 79 2.0 4.0 0.00 0.00 0.00 89 1014.1
20260905193203 79 78 0.0 2.0 0.00 0.00 0.00 89 1014.0
20260905192803 79 72 1.0 2.0 0.00 0.00 0.00 89 1014.0
20260905192403 79 68 1.0 2.0 0.00 0.00 0.00 88 1013.8
20260905192003 79 82 1.0 2.0 0.00 0.00 0.00 88 1014.0
20260905191816 79 85 1.0 2.0 0.00 0.00 0.00 88 1013.8
20260905191203 80 85 0.0 2.0 0.00 0.00 0.00 88 1013.9
20260905190803 80 81 1.0 4.0 0.00 0.00 0.00 88 1013.6
20260905190403 80 80 2.0 4.0 0.00 0.00 0.00 87 1013.9
20260905190003 80 88 2.0 4.0 0.00 0.00 0.00 88 1013.5
20260905185603 80 90 1.0 4.0 0.00 0.00 0.00 88 1013.8
20260905185203 80 90 2.0 4.0 0.00 0.00 0.00 87 1013.7
20260905184803 80 85 0.0 2.0 0.00 0.00 0.00 87 1013.6
20260905184403 80 79 2.0 2.0 0.00 0.00 0.00 86 1013.6
20260905184003 80 67 1.0 2.0 0.00 0.00 0.00 86 1013.5
20260905183603 89 67 5.0 8.0 0.00 0.00 0.00 68 1013.3
20260905183204 89 67 5.0 8.0 0.00 0.00 0.00 68 1013.2
20260905183013 89 67 5.0 8.0 0.00 0.00 0.00 68 1013.2
20260905182404 89 67 5.0 8.0 0.00 0.00 0.00 68 1013.0
20260905182003 89 67 5.0 8.0 0.00 0.00 0.00 68 1013.0
20260905181603 89 67 5.0 8.0 0.00 0.00 0.00 68 1013.0
20260905181416 89 67 5.0 8.0 0.00 0.00 0.00 68 1013.1
20260905180803 89 67 5.0 8.0 0.00 0.00 0.00 68 1012.9
20260905180403 89 67 5.0 8.0 0.00 0.00 0.00 68 1012.9
20260905180214 89 67 5.0 8.0 0.00 0.00 0.00 68 1012.8
20260905175603 89 67 5.0 8.0 0.00 0.00 0.00 68 1012.8
20260905175412 89 67 5.0 8.0 0.00 0.00 0.00 68 1012.8
20260905174803 89 67 5.0 8.0 0.00 0.00 0.00 68 1012.7
20260905174403 89 67 5.0 8.0 0.00 0.00 0.00 68 1012.8
20260905174003 89 67 5.0 8.0 0.00 0.00 0.00 68 1012.9
20260905173815 89 67 5.0 8.0 0.00 0.00 0.00 68 1012.6
20260905173203 89 67 5.0 8.0 0.00 0.00 0.00 68 1012.3
20260905172803 89 67 5.0 8.0 0.00 0.00 0.00 68 1012.7
20260905172613 89 67 5.0 8.0 0.00 0.00 0.00 68 1012.5
20260905172003 89 67 5.0 8.0 0.00 0.00 0.00 68 1012.6
20260905171603 89 67 5.0 8.0 0.00 0.00 0.00 68 1012.4
20260905171203 89 67 5.0 8.0 0.00 0.00 0.00 68 1012.4
20260905171016 89 67 5.0 8.0 0.00 0.00 0.00 68 1012.5
20260905170403 89 67 5.0 8.0 0.00 0.00 0.00 68 1012.6
20260905170004 89 67 5.0 8.0 0.00 0.00 0.00 68 1012.2
20260905165603 89 67 5.0 8.0 0.00 0.00 0.00 68 1012.5
20260905165203 89 67 5.0 8.0 0.00 0.00 0.00 68 1012.3
20260905164803 89 67 5.0 8.0 0.00 0.00 0.00 68 1012.3
20260905164403 89 67 5.0 8.0 0.00 0.00 0.00 68 1012.1
20260905164216 89 67 5.0 8.0 0.00 0.00 0.00 68 1012.1
20260905163816 89 69 5.0 8.0 0.00 0.00 0.00 68 1012.0
20260905163203 89 81 5.0 8.0 0.00 0.00 0.00 68 1012.1
20260905162803 89 88 2.0 4.0 0.00 0.00 0.00 63 1012.1
20260905162404 90 86 2.0 4.0 0.00 0.00 0.00 62 1012.1
20260905162003 91 90 1.0 2.0 0.00 0.00 0.00 55 1012.0
20260905161603 91 90 1.0 2.0 0.00 0.00 0.00 52 1012.1
20260905161203 92 90 0.0 2.0 0.00 0.00 0.00 54 1011.9
20260905160803 91 97 0.0 2.0 0.00 0.00 0.00 52 1011.8
20260905160403 91 116 1.0 2.0 0.00 0.00 0.00 55 1011.9
20260905160004 92 116 1.0 2.0 0.00 0.00 0.00 52 1012.1
20260905155604 92 99 1.0 2.0 0.00 0.00 0.00 52 1011.9
20260905155203 92 90 1.0 2.0 0.00 0.00 0.00 52 1012.0
20260905154803 93 90 0.0 4.0 0.00 0.00 0.00 53 1011.9
20260905154403 92 89 0.0 4.0 0.00 0.00 0.00 51 1011.9
20260905154003 92 88 1.0 4.0 0.00 0.00 0.00 53 1011.9
20260905153816 93 88 2.0 4.0 0.00 0.00 0.00 53 1011.9
20260905153203 94 127 0.0 2.0 0.00 0.00 0.00 49 1011.9
20260905153015 94 122 0.0 2.0 0.00 0.00 0.00 50 1011.8
20260905152403 94 41 0.0 2.0 0.00 0.00 0.00 54 1011.9
20260905152214 94 39 0.0 2.0 0.00 0.00 0.00 51 1011.8
20260905151603 94 102 1.0 2.0 0.00 0.00 0.00 48 1011.8
20260905151203 93 108 1.0 4.0 0.00 0.00 0.00 50 1011.9
20260905150803 92 101 0.0 4.0 0.00 0.00 0.00 52 1011.8
20260905150403 92 98 2.0 4.0 0.00 0.00 0.00 52 1011.6
20260905150216 92 101 2.0 4.0 0.00 0.00 0.00 55 1011.8
20260905145603 94 116 1.0 2.0 0.00 0.00 0.00 53 1011.8
20260905145203 94 101 1.0 2.0 0.00 0.00 0.00 50 1011.8
20260905144803 95 113 2.0 2.0 0.00 0.00 0.00 52 1011.8
20260905144403 94 118 0.0 2.0 0.00 0.00 0.00 51 1012.0
20260905144003 93 120 0.0 2.0 0.00 0.00 0.00 52 1011.6
20260905143603 93 117 2.0 4.0 0.00 0.00 0.00 56 1011.7
20260905143203 92 162 0.0 4.0 0.00 0.00 0.00 54 1012.0
20260905142803 93 144 2.0 4.0 0.00 0.00 0.00 52 1012.0
20260905142615 94 138 2.0 4.0 0.00 0.00 0.00 53 1012.0
20260905142003 92 101 2.0 4.0 0.00 0.00 0.00 53 1012.0
20260905141603 94 119 2.0 4.0 0.00 0.00 0.00 53 1012.0
20260905141203 94 222 1.0 4.0 0.00 0.00 0.00 49 1011.9
20260905140803 93 265 1.0 4.0 0.00 0.00 0.00 50 1012.1
20260905140617 93 269 1.0 4.0 0.00 0.00 0.00 51 1011.8
20260905140216 94 274 4.0 6.0 0.00 0.00 0.00 50 1012.1
20260905135603 93 143 1.0 6.0 0.00 0.00 0.00 50 1011.9
20260905135203 94 185 1.0 4.0 0.00 0.00 0.00 51 1012.1
20260905134803 93 251 1.0 6.0 0.00 0.00 0.00 49 1012.0
20260905134403 91 257 3.0 6.0 0.00 0.00 0.00 52 1012.2
20260905134003 93 238 3.0 6.0 0.00 0.00 0.00 51 1012.0
20260905133603 93 219 2.0 4.0 0.00 0.00 0.00 51 1012.2
20260905133203 92 246 2.0 4.0 0.00 0.00 0.00 52 1012.1
20260905132803 91 270 2.0 6.0 0.00 0.00 0.00 54 1012.4
20260905132403 92 277 2.0 6.0 0.00 0.00 0.00 52 1012.4
20260905132003 93 274 4.0 6.0 0.00 0.00 0.00 52 1012.5
20260905131603 91 266 2.0 6.0 0.00 0.00 0.00 51 1012.3
20260905131203 90 254 2.0 6.0 0.00 0.00 0.00 54 1012.2
20260905130803 93 286 2.0 4.0 0.00 0.00 0.00 51 1012.3
20260905130403 93 322 2.0 4.0 0.00 0.00 0.00 51 1012.4
20260905130004 92 315 2.0 4.0 0.00 0.00 0.00 50 1012.5
20260905125603 92 275 2.0 4.0 0.00 0.00 0.00 50 1012.4
20260905125203 92 272 2.0 4.0 0.00 0.00 0.00 53 1012.5
20260905125015 92 274 1.0 4.0 0.00 0.00 0.00 52 1012.8
20260905124614 91 281 2.0 4.0 0.00 0.00 0.00 52 1012.5
20260905124003 90 251 2.0 4.0 0.00 0.00 0.00 53 1012.8
20260905123603 91 238 2.0 4.0 0.00 0.00 0.00 54 1012.7
20260905123203 91 232 2.0 4.0 0.00 0.00 0.00 53 1012.8
20260905122803 91 212 2.0 4.0 0.00 0.00 0.00 53 1012.4
20260905122403 90 230 2.0 4.0 0.00 0.00 0.00 56 1012.7
20260905122003 90 221 2.0 6.0 0.00 0.00 0.00 53 1012.8
20260905121815 90 207 1.0 6.0 0.00 0.00 0.00 55 1012.9
20260905121203 90 162 4.0 6.0 0.00 0.00 0.00 54 1013.0
20260905120804 90 91 2.0 4.0 0.00 0.00 0.00 54 1012.9
20260905120403 89 75 2.0 4.0 0.00 0.00 0.00 55 1012.8
20260905120003 90 68 2.0 4.0 0.00 0.00 0.00 57 1013.0
20260905115603 90 39 2.0 4.0 0.00 0.00 0.00 58 1012.9
20260905115203 89 236 2.0 4.0 0.00 0.00 0.00 57 1012.9
20260905114803 89 194 2.0 4.0 0.00 0.00 0.00 58 1012.9
20260905114403 90 130 2.0 4.0 0.00 0.00 0.00 57 1013.1
20260905114003 90 118 2.0 4.0 0.00 0.00 0.00 57 1013.1
20260905113603 90 115 1.0 4.0 0.00 0.00 0.00 59 1013.0
20260905113203 90 100 2.0 4.0 0.00 0.00 0.00 60 1013.0
20260905112803 89 97 1.0 4.0 0.00 0.00 0.00 62 1012.7
20260905112403 91 108 2.0 4.0 0.00 0.00 0.00 59 1013.0
20260905112003 90 114 1.0 4.0 0.00 0.00 0.00 61 1012.9
20260905111603 91 89 3.0 4.0 0.00 0.00 0.00 57 1012.9
20260905111203 91 38 1.0 2.0 0.00 0.00 0.00 59 1012.9
20260905110803 90 46 2.0 2.0 0.00 0.00 0.00 61 1012.8
20260905110403 89 105 2.0 2.0 0.00 0.00 0.00 60 1013.0
20260905110003 88 126 2.0 4.0 0.00 0.00 0.00 62 1012.9
20260905105603 88 146 1.0 4.0 0.00 0.00 0.00 64 1013.2
20260905105203 88 199 1.0 4.0 0.00 0.00 0.00 62 1013.2
20260905104803 89 187 1.0 4.0 0.00 0.00 0.00 60 1013.1
20260905104403 89 243 2.0 4.0 0.00 0.00 0.00 64 1013.0
20260905104215 89 247 2.0 4.0 0.00 0.00 0.00 62 1013.3
20260905103814 89 245 3.0 4.0 0.00 0.00 0.00 63 1013.3
20260905103203 89 108 1.0 4.0 0.00 0.00 0.00 61 1013.3
20260905102803 89 140 2.0 2.0 0.00 0.00 0.00 61 1013.1
20260905102618 88 151 2.0 2.0 0.00 0.00 0.00 62 1012.8
20260905102003 88 153 1.0 2.0 0.00 0.00 0.00 66 1013.1
20260905101816 88 181 2.0 4.0 0.00 0.00 0.00 65 1013.1
20260905101203 86 245 2.0 4.0 0.00 0.00 0.00 66 1013.0
20260905101015 87 255 2.0 4.0 0.00 0.00 0.00 66 1013.3
20260905100615 85 257 1.0 4.0 0.00 0.00 0.00 67 1013.1